Location: ????????
(55.0808°N, 38.5463°E)
Time: 17:52:06
(UTC+00:00)

Cosmos 923 Rocket - Pass Details

Date: 14 April 2024
Orbit: 755 x 784 km, 74.0° (Epoch: 27 May)

Event Time Altitude Azimuth Distance (km) Brightness Sun altitude
Exits shadow 01:02:16 - 196° (SSW) 2,458 6.2 -11.3°
Reaches altitude 10° 01:02:41 10° 196° (SSW) 2,295 6.0 -11.2°
Maximum altitude 01:07:52 72° 113° (ESE) 813 4.2 -10.6°
Drops below altitude 10° 01:13:09 10° 30° (NNE) 2,330 7.6 -10.0°
Sets 01:15:33 0° 29° (NNE) 3,266 8.5 -9.7°
